GW1931 Weather Reports


Display with metric or nautical units.
time (UTC)temp
F
wind
direction
speed
MPH
gust
MPH
rain 1hr
in
rain 24hr
in
rain mn
in
humidity
%
barometer
mb
20260901033959 82 143 0.0 0.0 0.00 0.00 0.00 82 1017.8
20260901030959 82 144 0.0 0.0 0.00 0.00 0.00 82 1017.4
20260901023954 82 144 0.0 0.0 0.00 0.00 0.00 82 1017.2
20260901020954 84 144 0.0 0.0 0.00 0.00 0.00 79 1017.1
20260901013954 85 144 0.0 0.0 0.00 0.00 0.00 76 1016.7
20260901010951 86 125 0.0 0.0 0.00 0.00 0.00 74 1016.6
20260901003948 87 125 0.0 0.0 0.00 0.00 0.00 72 1016.5
20260901000944 87 125 0.0 1.0 0.00 0.00 0.00 70 1016.6
20260831233942 88 114 2.0 5.0 0.00 0.00 0.00 68 1017.2
20260831230940 94 197 2.0 2.0 0.00 0.00 0.00 57 1016.9
20260831223937 95 102 0.0 1.0 0.00 0.00 0.00 58 1016.6
20260831220934 95 122 2.0 3.0 0.00 0.00 0.00 59 1016.7
20260831213932 97 99 3.0 5.0 0.00 0.00 0.00 50 1016.7
20260831210931 103 121 3.0 3.0 0.00 0.00 0.00 44 1016.7
20260831203929 98 130 1.0 2.0 0.00 0.00 0.00 50 1017.1
20260831200924 97 278 1.0 2.0 0.00 0.00 0.00 51 1017.5
20260831193921 100 133 1.0 3.0 0.00 0.00 0.00 49 1018.0
20260831190917 98 314 2.0 5.0 0.00 0.00 0.00 52 1018.8
20260831183914 98 137 2.0 3.0 0.00 0.00 0.00 53 1019.2
20260831180911 93 130 0.0 3.0 0.00 0.00 0.00 60 1019.4
20260831173909 92 108 0.0 2.0 0.00 0.00 0.00 61 1019.9
20260831170904 94 133 1.0 3.0 0.00 0.00 0.00 60 1020.1
20260831163903 94 205 0.0 1.0 0.00 0.00 0.00 62 1020.2
20260831160900 94 149 0.0 3.0 0.00 0.00 0.00 62 1020.2
20260831153858 90 123 0.0 2.0 0.00 0.00 0.00 71 1020.5
20260831150857 88 277 1.0 2.0 0.00 0.00 0.00 76 1020.2
20260831143852 89 99 0.0 1.0 0.00 0.00 0.00 79 1020.0
20260831140851 85 102 1.0 1.0 0.00 0.00 0.00 87 1019.9
20260831133847 83 118 0.0 1.0 0.00 0.00 0.00 90 1019.7
20260831130846 79 111 0.0 0.0 0.00 0.00 0.00 99 1019.7
20260831123844 75 103 0.0 0.0 0.00 0.00 0.00 99 1019.2
20260831120843 75 129 0.0 0.0 0.00 0.00 0.00 99 1018.7
20260831113841 75 124 0.0 0.0 0.00 0.00 0.00 99 1018.6
20260831110840 75 124 0.0 0.0 0.00 0.00 0.00 99 1018.6
20260831103838 75 124 0.0 0.0 0.00 0.00 0.00 99 1018.7
20260831100833 76 147 0.0 0.0 0.00 0.00 0.00 99 1018.7
20260831093832 76 147 0.0 0.0 0.00 0.00 0.00 99 1018.5
20260831090828 76 147 0.0 0.0 0.00 0.00 0.00 98 1018.6
20260831083825 77 147 0.0 0.0 0.00 0.00 0.00 97 1018.3
20260831080824 78 146 0.0 0.0 0.00 0.00 0.00 96 1018.6
20260831073822 78 146 0.0 0.0 0.00 0.00 0.00 94 1018.7
20260831070819 78 135 0.0 1.0 0.00 0.00 0.00 93 1018.6
20260831063814 79 145 0.0 0.0 0.00 0.00 0.00 91 1018.9
20260831060810 80 124 0.0 1.0 0.00 0.00 0.00 89 1018.7
20260831053805 81 138 0.0 0.0 0.00 0.00 0.00 87 1018.7
20260831050802 81 141 0.0 2.0 0.00 0.00 0.00 84 1018.6
20260831043800 82 140 0.0 1.0 0.00 0.00 0.00 82 1018.3
20260831040755 82 119 0.0 1.0 0.00 0.00 0.00 80 1018.1